Weather History for KJLN - July, 2013

Change the Weather History Date:

Sunday, July 14, 2013

  Actual Average Record
Temperature  
Mean Temperature 77 °F 80 °F  
Max Temperature 89 °F 91 °F 115 °F (1954)
Min Temperature 65 °F 70 °F 52 °F (1967)
Degree Days  
Heating Degree Days 0 0  
Month to date heating degree days 0 0  
Since 1 June heating degree days 12 5  
Since 1 July heating degree days 0 0  
Cooling Degree Days 12 15  
Month to date cooling degree days 187 206  
Year to date cooling degree days 654 704  
Since 1 June cooling degree days 510 524  
Growing Degree Days 27 (Base 50)    
Moisture  
Dew Point 57 °F    
Average Humidity 54    
Maximum Humidity 78    
Minimum Humidity 29    
Precipitation  
Precipitation T in 0.13 in 2.02 in (1959)
Month to date precipitation 0.09 1.94  
Year to date precipitation 27.87 25.75  
Snow  
Snow 0.00 in - - ()
Month to date snowfall 0.0  
Since 1 June snowfall 0.0  
Snow Depth 0.00 in    
Sea Level Pressure  
Sea Level Pressure 30.00 in    
Wind  
Wind Speed 8 mph (ESE)    
Max Wind Speed 16 mph    
Max Gust Speed 23 mph    
Visibility 10 miles    
Events      
T = Trace of Precipitation, MM = Missing Value Source: NWS Daily Summary

Daily Weather History Graph

Daily Weather History Graph

Search for Another Location

Airport or City:

Trip Planner

Search our weather history database for the weather conditions in past years. The results will help you decide how hot, cold, wet, or windy it might be!

Date:

Astronomy

Jul. 14, 2013 Rise Set
Actual Time 6:09 AM CDT 8:38 PM CDT
Civil Twilight 5:39 AM CDT 9:08 PM CDT
Nautical Twilight 5:01 AM CDT 9:45 PM CDT
Astronomical Twilight 4:20 AM CDT 10:26 PM CDT
Moon 12:17 PM CDT (7/14) No Moon Set
Length of Visible Light 15h 29m
Length of Day
14h 28m
Waxing Crescent, 35% of the Moon is Illuminated
Jul 14
Waxing Crescent
Jul 15
First Quarter
Jul 22
Full
Jul 29
Last Quarter
Aug 6
New

Hourly Weather History & Observations

Time (CDT) Temp. Heat Index Dew Point Humidity Pressure Visibility Wind Dir Wind Speed Gust Speed Precip Events Conditions
12:53 AM 73.9 °F - 59.0 °F 59% 29.99 in 10.0 mi ESE 4.6 mph - N/A   Clear
1:53 AM 71.1 °F - 61.0 °F 70% 29.96 in 10.0 mi ESE 5.8 mph - 0.00 in   Clear
2:53 AM 71.1 °F - 61.0 °F 70% 29.96 in 10.0 mi East 3.5 mph - N/A   Overcast
3:53 AM 68.0 °F - 60.1 °F 76% 29.97 in 10.0 mi Calm Calm - N/A   Clear
4:53 AM 66.0 °F - 59.0 °F 78% 29.98 in 10.0 mi ESE 6.9 mph - N/A   Clear
5:53 AM 66.9 °F - 57.9 °F 73% 29.99 in 10.0 mi SE 6.9 mph - N/A   Clear
6:53 AM 66.9 °F - 59.0 °F 76% 30.00 in 10.0 mi ESE 8.1 mph - N/A   Clear
7:53 AM 71.1 °F - 59.0 °F 66% 30.01 in 10.0 mi SE 8.1 mph - N/A   Clear
8:53 AM 75.9 °F - 60.1 °F 58% 30.04 in 10.0 mi ESE 10.4 mph - N/A   Clear
9:53 AM 80.1 °F 80.9 °F 60.1 °F 50% 30.04 in 10.0 mi SE 11.5 mph - N/A   Clear
10:53 AM 82.0 °F 82.0 °F 57.9 °F 44% 30.02 in 10.0 mi SE 11.5 mph - N/A   Clear
11:53 AM 84.9 °F 84.2 °F 57.9 °F 40% 30.01 in 10.0 mi SSE 8.1 mph - N/A   Clear
12:53 PM 84.9 °F 84.2 °F 57.9 °F 40% 30.01 in 10.0 mi East 11.5 mph - N/A   Mostly Cloudy
1:53 PM 84.9 °F 84.2 °F 57.9 °F 40% 30.01 in 10.0 mi SE 13.8 mph 19.6 mph N/A   Mostly Cloudy
2:53 PM 88.0 °F 86.1 °F 55.0 °F 32% 30.00 in 10.0 mi ESE 12.7 mph 21.9 mph N/A   Clear
3:53 PM 88.0 °F - 52.0 °F 29% 29.99 in 10.0 mi East 9.2 mph 18.4 mph N/A   Clear
4:53 PM 87.1 °F 85.3 °F 55.0 °F 33% 29.99 in 10.0 mi East 8.1 mph 17.3 mph N/A   Scattered Clouds
5:53 PM 88.0 °F 85.9 °F 54.0 °F 31% 29.97 in 10.0 mi ESE 9.2 mph - N/A   Clear
6:53 PM 86.0 °F 84.5 °F 55.0 °F 35% 29.97 in 10.0 mi East 8.1 mph - N/A   Clear
7:53 PM 84.0 °F 83.0 °F 55.9 °F 38% 29.98 in 10.0 mi East 5.8 mph - N/A   Clear
8:53 PM 78.1 °F - 55.9 °F 46% 30.01 in 10.0 mi East 4.6 mph - N/A   Clear
9:53 PM 75.0 °F - 55.0 °F 50% 30.02 in 10.0 mi East 5.8 mph - N/A   Clear
10:53 PM 73.0 °F - 54.0 °F 51% 30.04 in 10.0 mi ESE 4.6 mph - N/A   Clear
11:53 PM 70.0 °F - 55.0 °F 59% 30.05 in 10.0 mi ESE 5.8 mph - N/A   Clear